Location: York
(31.8935°S, 116.7682°E)
Time: 01:08:52
(UTC+08:00)

ISS - Pass Details

Date: 13 December 2021
Orbit: 413 x 422 km, 51.6° (Epoch: 20 January)

Event Time Altitude Azimuth Distance (km) Brightness Sun altitude
Rises 19:56:44 0° 328° (NNW) 2,349 0.0 -8.7°
Reaches altitude 10° 19:58:51 10° 334° (NNW) 1,492 -1.1 -9.1°
Maximum altitude 20:02:04 45° 48° (NE) 578 -3.5 -9.6°
Drops below altitude 10° 20:05:20 10° 122° (ESE) 1,506 -1.2 -10.2°
Sets 20:07:29 0° 128° (SE) 2,375 -0.1 -10.5°
